Fort Smith, AR

1:31 PM CDT on October 22, 2017 (GMT -0500)
Fort Smith Regional

Weather History for KFSM - August, 2014

Change the Weather History Date:

Friday, August 8, 2014

  Actual Average Record
Temperature  
Mean Temperature 85 °F 83 °F  
Max Temperature 94 °F 94 °F 109 °F (2011)
Min Temperature 75 °F 72 °F 55 °F (1989)
Cooling Degree Days 20 18  
Month to date cooling degree days 122 144  
Year to date cooling degree days 1257 1309  
Since 1 June cooling degree days 979 1065  
Growing Degree Days 34 (Base 50)    
Moisture  
Dew Point 74 °F    
Average Humidity 76    
Maximum Humidity 94    
Minimum Humidity 57    
Precipitation  
Precipitation 0.01 in 0.08 in 4.25 in (1897)
Month to date precipitation 0.63 0.71  
Year to date precipitation 22.50 27.48  
Sea Level Pressure  
Sea Level Pressure 29.89 in    
Wind  
Wind Speed 5 mph (NE)    
Max Wind Speed 23 mph    
Max Gust Speed 27 mph    
Visibility 9 miles    
Events      
T = Trace of Precipitation, MM = Missing Value Source: NWS Daily Summary

Daily Weather History Graph

Daily Weather History Graph

Search for Another Location

Airport or City:

Trip Planner

Search our weather history database for the weather conditions in past years. The results will help you decide how hot, cold, wet, or windy it might be!

Date:

Astronomy

Aug. 08, 2014 Rise Set
Actual Time 6:31 AM CDT 8:14 PM CDT
Civil Twilight 6:04 AM CDT 8:41 PM CDT
Nautical Twilight 5:31 AM CDT 9:14 PM CDT
Astronomical Twilight 4:55 AM CDT 9:49 PM CDT
Moon 6:25 PM CDT (8/8) 4:06 AM CDT (8/8)
Length of Visible Light 14h 37m
Length of Day
13h 42m
Waxing Gibbous, 94% of the Moon is Illuminated
Aug 8
Waxing Gibbous
Aug 10
Full
Aug 17
Last Quarter
Aug 25
New
Sep 2
First Quarter

Hourly Weather History & Observations

Time (CDT) Temp. Heat Index Dew Point Humidity Pressure Visibility Wind Dir Wind Speed Gust Speed Precip Events Conditions
12:53 AM 78.1 °F - 75.0 °F 90% 29.87 in 10.0 mi NE 3.5 mph - N/A   Clear
1:53 AM 78.1 °F - 75.9 °F 93% 29.88 in 8.0 mi NE 5.8 mph - N/A   Mostly Cloudy
2:53 AM 78.1 °F - 75.0 °F 90% 29.87 in 8.0 mi ENE 3.5 mph - N/A   Mostly Cloudy
3:53 AM 77.0 °F - 75.0 °F 94% 29.86 in 8.0 mi ENE 3.5 mph - N/A   Partly Cloudy
4:53 AM 77.0 °F - 73.9 °F 90% 29.87 in 7.0 mi NE 4.6 mph - N/A   Clear
5:16 AM 77.0 °F - 75.0 °F 94% 29.89 in 6.0 mi ENE 4.6 mph - N/A   Scattered Clouds
5:25 AM 77.0 °F - 75.0 °F 94% 29.89 in 5.0 mi ENE 4.6 mph - N/A   Mostly Cloudy
5:53 AM 77.0 °F - 75.0 °F 94% 29.88 in 6.0 mi NE 5.8 mph - N/A   Mostly Cloudy
6:08 AM 77.0 °F - 73.9 °F 90% 29.91 in 7.0 mi NE 5.8 mph - N/A   Mostly Cloudy
6:53 AM 77.0 °F - 73.9 °F 90% 29.90 in 7.0 mi ENE 5.8 mph - N/A   Clear
7:53 AM 78.1 °F - 73.9 °F 87% 29.92 in 7.0 mi East 3.5 mph - N/A   Clear
8:53 AM 82.0 °F 89.4 °F 75.9 °F 82% 29.92 in 8.0 mi ENE 3.5 mph - N/A   Clear
9:53 AM 84.9 °F 94.1 °F 75.9 °F 74% 29.91 in 10.0 mi Calm Calm - N/A   Partly Cloudy
10:53 AM 87.1 °F 95.4 °F 73.9 °F 65% 29.91 in 10.0 mi West 5.8 mph - N/A   Scattered Clouds
11:53 AM 90.0 °F 101.3 °F 75.9 °F 63% 29.90 in 10.0 mi West 4.6 mph - N/A   Clear
12:53 PM 91.9 °F 103.2 °F 75.0 °F 58% 29.89 in 10.0 mi Variable 3.5 mph - N/A   Clear
1:53 PM 91.0 °F 101.6 °F 75.0 °F 59% 29.88 in 10.0 mi Calm Calm - N/A   Partly Cloudy
2:53 PM 91.9 °F 103.9 °F 75.9 °F 59% 29.87 in 10.0 mi Calm Calm - N/A   Clear
3:53 PM 93.0 °F 106.7 °F 77.0 °F 59% 29.85 in 10.0 mi WNW 8.1 mph - 0.00 in   Scattered Clouds
4:53 PM 91.0 °F 106.2 °F 78.1 °F 66% 29.84 in 10.0 mi North 16.1 mph 23.0 mph 0.00 in   Clear
5:53 PM 86.0 °F 90.7 °F 70.0 °F 59% 29.86 in 10.0 mi NE 13.8 mph - N/A   Partly Cloudy
6:53 PM 78.1 °F - 73.0 °F 84% 29.88 in 10.0 mi East 3.5 mph - 0.01 in   Scattered Clouds
7:53 PM 77.0 °F - 73.0 °F 88% 29.89 in 10.0 mi East 3.5 mph - N/A   Clear
8:53 PM 77.0 °F - 72.0 °F 84% 29.91 in 10.0 mi ESE 4.6 mph - N/A   Clear
9:53 PM 77.0 °F - 72.0 °F 84% 29.92 in 10.0 mi East 4.6 mph - N/A   Clear
10:53 PM 75.9 °F - 72.0 °F 87% 29.92 in 10.0 mi East 3.5 mph - N/A   Clear
11:53 PM 75.9 °F - 72.0 °F 87% 29.91 in 10.0 mi ENE 3.5 mph - N/A   Clear